When you browse on this site, cookies collect data to enhance your experience and personalize the content and advertising you see.
Visit our Privacy Policy to learn more. By continuing to use the site, you agree to this use of cookies and data.
  • In Lithuania
  • List of Countries
  • For 7 days
  • Water Temperature
  • Satellite Maps
  • Weather Map
  • Weather Widgets
  • user-avatar
    Login

    Hourly Weather La Rioja

    Today, 20 February, Wednesday

    Time Temperature Precipitation Wind Pressure Humidity
    00:00 +28°C° 0 mm 2 mps 712 mmHg 42%
    01:00 +28°C° 0 mm 2 mps 712 mmHg 41%
    02:00 +28°C° 0 mm 2 mps 712 mmHg 40%
    03:00 +27°C° 0 mm 2 mps 712 mmHg 40%
    04:00 +27°C° 0 mm 2 mps 712 mmHg 40%
    05:00 +26°C° 0 mm 2 mps 711 mmHg 40%
    06:00 +28°C° 0 mm 1 mps 712 mmHg 36%
    07:00 +30°C° 0 mm 1 mps 712 mmHg 32%
    08:00 +32°C° 0 mm 1 mps 712 mmHg 28%
    09:00 +33°C° 0 mm 1 mps 712 mmHg 26%
    10:00 +36°C° 0 mm 2 mps 712 mmHg 24%
    11:00 +37°C° 0 mm 2 mps 712 mmHg 23%
    12:00 +39°C° 0 mm 3 mps 711 mmHg 21%
    13:00 +40°C° 0 mm 3 mps 710 mmHg 20%
    14:00 +42°C° 0 mm 4 mps 710 mmHg 18%
    15:00 +42°C° 0 mm 4 mps 709 mmHg 18%
    16:00 +42°C° 0 mm 5 mps 709 mmHg 18%
    17:00 +42°C° 0 mm 5 mps 708 mmHg 18%
    18:00 +40°C° 0 mm 4 mps 708 mmHg 25%
    19:00 +36°C° 0 mm 3 mps 708 mmHg 32%
    20:00 +32°C° 0 mm 2 mps 708 mmHg 39%
    21:00 +31°C° 0 mm 2 mps 709 mmHg 41%
    22:00 +30°C° 0 mm 1 mps 709 mmHg 44%
    23:00 +29°C° 0 mm 1 mps 710 mmHg 46%

    Tomorrow, 21 February, Thursday

    Time Temperature Precipitation Wind Pressure Humidity
    00:00 +29°C° 0 mm 1 mps 710 mmHg 44%
    01:00 +28°C° 0 mm 1 mps 710 mmHg 42%
    02:00 +28°C° 0 mm 1 mps 709 mmHg 40%
    03:00 +27°C° 0 mm 1 mps 709 mmHg 42%
    04:00 +27°C° 0 mm 1 mps 709 mmHg 43%
    05:00 +24°C° 0 mm 0 mps 709 mmHg 45%
    06:00 +26°C° 0 mm 0 mps 710 mmHg 40%
    07:00 +28°C° 0 mm 0 mps 710 mmHg 35%
    08:00 +31°C° 0 mm 0 mps 711 mmHg 30%
    09:00 +34°C° 0 mm 1 mps 711 mmHg 28%
    10:00 +36°C° 0 mm 1 mps 711 mmHg 26%
    11:00 +38°C° 0 mm 2 mps 712 mmHg 23%
    12:00 +39°C° 0 mm 2 mps 711 mmHg 23%
    13:00 +42°C° 0 mm 3 mps 711 mmHg 22%
    14:00 +43°C° 0 mm 3 mps 710 mmHg 21%
    15:00 +43°C° 0 mm 3 mps 710 mmHg 20%
    16:00 +43°C° 0 mm 3 mps 709 mmHg 20%
    17:00 +43°C° 0 mm 3 mps 709 mmHg 20%
    18:00 +39°C° 0 mm 2 mps 709 mmHg 24%
    19:00 +37°C° 0 mm 2 mps 709 mmHg 28%
    20:00 +34°C° 0 mm 2 mps 710 mmHg 32%
    21:00 +32°C° 0 mm 2 mps 710 mmHg 35%
    22:00 +31°C° 0 mm 2 mps 711 mmHg 38%
    23:00 +30°C° 0 mm 2 mps 711 mmHg 40%

    Day after tomorrow, 22 February, Friday

    Time Temperature Precipitation Wind Pressure Humidity
    00:00 +30°C° 0 mm 2 mps 711 mmHg 39%
    01:00 +30°C° 0 mm 2 mps 711 mmHg 38%
    02:00 +30°C° 0 mm 2 mps 711 mmHg 37%
    03:00 +30°C° 0 mm 2 mps 711 mmHg 37%
    04:00 +29°C° 0 mm 2 mps 710 mmHg 37%
    05:00 +28°C° 0 mm 1 mps 710 mmHg 37%
    06:00 +30°C° 0 mm 1 mps 711 mmHg 32%
    07:00 +32°C° 0 mm 1 mps 711 mmHg 28%
    08:00 +34°C° 0 mm 1 mps 712 mmHg 24%
    09:00 +37°C° 0 mm 2 mps 712 mmHg 23%
    10:00 +38°C° 0 mm 3 mps 713 mmHg 21%
    11:00 +40°C° 0 mm 3 mps 713 mmHg 20%
    12:00 +42°C° 0 mm 4 mps 712 mmHg 20%
    13:00 +42°C° 0 mm 4 mps 712 mmHg 20%
    14:00 +43°C° 0 mm 4 mps 711 mmHg 21%
    15:00 +43°C° 0 mm 4 mps 710 mmHg 21%
    16:00 +43°C° 0 mm 4 mps 710 mmHg 22%
    17:00 +43°C° 0 mm 3 mps 709 mmHg 22%
    18:00 +40°C° 0 mm 3 mps 710 mmHg 26%
    19:00 +37°C° 0 mm 2 mps 710 mmHg 30%
    20:00 +35°C° 0 mm 2 mps 711 mmHg 33%
    21:00 +35°C° 0 mm 2 mps 711 mmHg 33%
    22:00 +34°C° 0 mm 3 mps 712 mmHg 33%
    23:00 +34°C° 0 mm 4 mps 712 mmHg 33%

    23 February, Saturday

    Time Temperature Precipitation Wind Pressure Humidity
    00:00 +33°C° 0 mm 4 mps 712 mmHg 34%
    01:00 +33°C° 0 mm 4 mps 711 mmHg 35%
    02:00 +32°C° 0 mm 4 mps 711 mmHg 35%
    03:00 +31°C° 0 mm 3 mps 711 mmHg 40%
    04:00 +30°C° 0 mm 3 mps 710 mmHg 45%
    05:00 +29°C° 0 mm 3 mps 710 mmHg 50%
    06:00 +30°C° 0 mm 3 mps 710 mmHg 51%
    07:00 +31°C° 0 mm 3 mps 710 mmHg 52%
    08:00 +32°C° 0 mm 4 mps 711 mmHg 53%
    09:00 +34°C° 0 mm 4 mps 710 mmHg 50%
    10:00 +35°C° 0 mm 4 mps 710 mmHg 46%
    11:00 +36°C° 0 mm 4 mps 710 mmHg 43%
    12:00 +37°C° 0 mm 3 mps 709 mmHg 40%
    13:00 +38°C° 0 mm 3 mps 708 mmHg 37%
    14:00 +40°C° 0 mm 3 mps 707 mmHg 33%
    15:00 +40°C° 0 mm 3 mps 707 mmHg 33%
    16:00 +40°C° 0 mm 3 mps 706 mmHg 32%
    17:00 +40°C° 0 mm 3 mps 705 mmHg 31%
    18:00 +38°C° 0 mm 3 mps 706 mmHg 34%
    19:00 +36°C° 0 mm 2 mps 706 mmHg 37%
    20:00 +35°C° 0 mm 2 mps 707 mmHg 41%
    21:00 +34°C° 0.1 mm 2 mps 707 mmHg 42%
    22:00 +34°C° 0.1 mm 2 mps 708 mmHg 43%
    23:00 +34°C° 0.1 mm 3 mps 708 mmHg 44%

    24 February, Sunday

    Time Temperature Precipitation Wind Pressure Humidity
    00:00 +33°C° 0 mm 3 mps 708 mmHg 46%
    01:00 +31°C° 0 mm 3 mps 708 mmHg 49%
    02:00 +30°C° 0 mm 4 mps 707 mmHg 52%
    03:00 +30°C° 0 mm 3 mps 707 mmHg 56%
    04:00 +29°C° 0 mm 3 mps 708 mmHg 60%
    05:00 +28°C° 0 mm 2 mps 708 mmHg 64%
    06:00 +28°C° 0 mm 2 mps 708 mmHg 65%
    07:00 +29°C° 0 mm 2 mps 709 mmHg 67%
    08:00 +29°C° 0 mm 2 mps 710 mmHg 68%
    09:00 +31°C° 0 mm 2 mps 710 mmHg 62%
    10:00 +33°C° 0 mm 3 mps 710 mmHg 55%
    11:00 +35°C° 0 mm 3 mps 710 mmHg 48%
    12:00 +36°C° 0 mm 3 mps 709 mmHg 44%
    13:00 +37°C° 0 mm 4 mps 709 mmHg 40%
    14:00 +38°C° 0 mm 4 mps 708 mmHg 35%
    15:00 +38°C° 0 mm 4 mps 708 mmHg 35%
    16:00 +38°C° 0 mm 4 mps 707 mmHg 35%
    17:00 +38°C° 0 mm 4 mps 707 mmHg 35%
    18:00 +36°C° 0 mm 4 mps 707 mmHg 41%
    19:00 +35°C° 0 mm 3 mps 708 mmHg 47%
    20:00 +32°C° 0 mm 2 mps 708 mmHg 53%
    21:00 +31°C° 0 mm 2 mps 708 mmHg 57%
    22:00 +30°C° 0 mm 1 mps 709 mmHg 61%
    23:00 +29°C° 0 mm 1 mps 709 mmHg 66%

    25 February, Monday

    Time Temperature Precipitation Wind Pressure Humidity
    00:00 +29°C° 0.1 mm 1 mps 709 mmHg 68%
    01:00 +28°C° 0.1 mm 2 mps 709 mmHg 70%
    02:00 +28°C° 0.1 mm 3 mps 709 mmHg 72%
    03:00 +27°C° 0.1 mm 3 mps 709 mmHg 73%
    04:00 +27°C° 0.1 mm 2 mps 709 mmHg 75%
    05:00 +27°C° 0.1 mm 2 mps 709 mmHg 76%
    06:00 +26°C° 0.1 mm 3 mps 710 mmHg 76%
    07:00 +26°C° 0.1 mm 3 mps 711 mmHg 77%
    08:00 +26°C° 0.1 mm 4 mps 711 mmHg 77%
    09:00 +26°C° 0.1 mm 4 mps 711 mmHg 75%
    10:00 +26°C° 0.1 mm 4 mps 711 mmHg 73%
    11:00 +25°C° 0.1 mm 5 mps 712 mmHg 71%
    12:00 +25°C° 0.1 mm 5 mps 711 mmHg 68%
    13:00 +25°C° 0.1 mm 5 mps 711 mmHg 64%
    14:00 +23°C° 0.1 mm 5 mps 711 mmHg 60%
    15:00 +23°C° 0 mm 5 mps 710 mmHg 58%
    16:00 +22°C° 0 mm 5 mps 710 mmHg 56%
    17:00 +22°C° 0 mm 4 mps 710 mmHg 54%
    18:00 +21°C° 0 mm 4 mps 711 mmHg 56%
    19:00 +20°C° 0 mm 3 mps 712 mmHg 58%
    20:00 +19°C° 0 mm 3 mps 712 mmHg 60%
    21:00 +18°C° 0 mm 2 mps 713 mmHg 61%
    22:00 +18°C° 0 mm 2 mps 713 mmHg 62%
    23:00 +18°C° 0 mm 2 mps 714 mmHg 63%
    Show more